Flag for Germany Weather past 2 weeks in Bad Oeynhausen, North Rhine-Westphalia, Germany

Now
61 °F

Broken clouds.


Feels Like: 61 °F
Forecast: 45 / 67 °F
Wind: 6 mph from East

Location: Bueckeburg


UV Index: 3 (Moderate)

Visibility: N/A


Pressure: 29.68 "Hg

Humidity: 68%

Dew point: 50 °F

Location of Bad OeynhausenLocation

Historic Weather in Bad Oeynhausen

°F

Bad Oeynhausen temperature yesterday

Maximum temperature yesterday: 66 °F (at 3:20 PM)
Minimum temperature yesterday: 46 °F (at 4:20 AM)
Average temperature yesterday: 57 °F

Past Weeks' High & Low Weather Summary

 TemperatureHumidityPressure
High70 °F (Apr 7, 4:20 PM)100% (Apr 11, 9:20 AM)30.48 "Hg (Apr 11, 9:20 AM)
Low30 °F (Apr 16, 4:20 AM)31% (Apr 17, 6:20 PM)29.68 "Hg (Apr 21, 2:20 PM)
Average51 °F73%30.03 "Hg
* Reported Apr 6 4:20 PM — Apr 21 4:20 PM, Bad Oeynhausen, Weather by CustomWeather, © 2014

Note: Actual official high and low records may vary slightly from our data, if they occured in-between our weather recording intervals... More about our weather records

Advertising

Historic Weather Conditions — Data for Previous 24 hours

 ConditionsComfort  
Time TempWeatherWind HumidityBarometerVisibility
4:20 PM
Apr 21
63 °FBroken clouds.12 mph59%29.68 "HgN/A
3:20 PM61 °FBroken clouds.10 mph63%29.68 "HgN/A
2:20 PM61 °FBroken clouds.6 mph59%29.68 "HgN/A
1:20 PM57 °FPartly sunny.6 mph82%29.71 "HgN/A
12:20 PM55 °FPartly sunny.2 mph82%29.71 "HgN/A
11:20 AM55 °FBroken clouds.5 mph82%29.71 "HgN/A
10:20 AM54 °FBroken clouds.5 mph82%29.71 "Hg5 mi
9:20 AM52 °FBroken clouds.5 mph88%29.74 "HgN/A
8:20 AM50 °FLight rain. Partly sunny.2 mph94%29.74 "Hg6 mi
7:20 AM52 °FLight rain. Partly sunny.2 mph88%29.74 "HgN/A
6:20 AM52 °FLight rain. Passing clouds.9 mph82%29.74 "HgN/A
5:20 AM54 °FLight rain. Mostly cloudy.2 mph77%29.74 "HgN/A
4:20 AM52 °FMostly cloudy.1 mph77%29.74 "HgN/A
3:20 AM52 °FPassing clouds.5 mph77%29.77 "HgN/A
2:20 AM52 °FPassing clouds.2 mph77%29.77 "HgN/A
1:20 AM54 °FPassing clouds.1 mph72%29.80 "HgN/A
12:20 AM54 °FPassing clouds.2 mph72%29.80 "HgN/A
11:20 PM
Apr 20
57 °FPassing clouds.7 mph63%29.80 "HgN/A
10:20 PM57 °FPassing clouds.10 mph63%29.80 "HgN/A
9:20 PM59 °FScattered clouds.7 mph55%29.80 "HgN/A
8:20 PM59 °FScattered clouds.8 mph55%29.80 "HgN/A
7:20 PM64 °FPassing clouds.10 mph46%29.77 "HgN/A
6:20 PM66 °FPassing clouds.16 mph43%29.77 "HgN/A
Weather by CustomWeather, © 2014

See weather overview